Regional Weather Roundup
Issued by NWS

Home | Current Version | Previous Version | Graphics & Text | Print | Product List | Glossary On
Versions: 1 2 3 4 5 6 7 8 9 10 11 12 13 14 15 16 17 18 19 20 21 22 23 24 25 26 27 28 29 30 31 32 33 34 35 36 37 38 39 40 41 42 43 44 45 46 47 48 49 50
000
ASUS43 KLOT 012308
RWRIL

ILLINOIS REGIONAL WEATHER ROUNDUP
NATIONAL WEATHER SERVICE CHICAGO/ROMEOVILLE IL
600 PM CDT SAT AUG 01 2015

NOTE: "FAIR" INDICATES FEW OR NO CLOUDS BELOW 12,000 FEET WITH NO
SIGNIFICANT WEATHER AND/OR OBSTRUCTIONS TO VISIBILITY.

* THESE STATIONS ARE NOT UNDER NWS QUALITY CONTROL. THEY ALSO MAY NOT
  REPORT WEATHER SUCH AS PRECIPITATION OR FOG.

ILZ001-002-007-009-015-016-024-020000-
NORTHWEST ILLINOIS

CITY           SKY/WX    TMP DP  RH WIND       PRES   REMARKS
MOLINE         PTSUNNY   84  68  58 SW5       29.93F HX  87
STERLING*      PTSUNNY   82  64  54 W9        29.90F HX  84
SAVANNA*       PTSUNNY   79  69  70 CALM      29.92S HX  82
$$

ILZ003-004-008-010-011-017-018-020000-
NORTH CENTRAL ILLINOIS

CITY           SKY/WX    TMP DP  RH WIND       PRES   REMARKS
ROCKFORD       PTSUNNY   83  65  54 W9        29.92F HX  85
FREEPORT*      PTSUNNY   81  67  62 SW12      29.93F HX  83
ROCHELLE*      MOSUNNY   81  67  62 SW5       29.92F HX  83
DE KALB*       MOSUNNY   83  64  53 W15G22    29.93F HX  84
PERU*          MOSUNNY   82  62  50 W8        29.94S HX  83
$$

ILZ005-006-012>014-019>023-020000-
NORTHEAST ILLINOIS

CITY           SKY/WX    TMP DP  RH WIND       PRES   REMARKS
CHICAGO-OHARE  PTSUNNY   84  60  44 W18G24    29.90F HX  84
CHICAGO-MIDWAY PTSUNNY   85  59  41 W13G24    29.90F HX  84
AURORA         SUNNY     83  62  49 SW13      29.92F HX  84
LANSING*       PTSUNNY   83  58  42 W14       29.92F HX  83
JOLIET*        SUNNY     84  62  46 W7G16     29.92F HX  85
WAUKEGAN       PTSUNNY   83  61  47 VRB5      29.88F HX  83
DUPAGE AIRPORT MOSUNNY   83  60  45 W16G22    29.91F HX  83
KANKAKEE*      MOSUNNY   82  64  54 SW9       29.95F HX  84
WHEELING       PTSUNNY   85  58  39 W14G22    29.90F HX  84
MORRIS*        SUNNY     82  64  53 W10       29.92F HX  83
ROMEOVILLE*    MOSUNNY   82  59  44 W12G21    29.92F HX  82
NORTHERLY ISL    N/A     84  57  39 W10         N/A  HX  83
$$

LMZ740>746-020000-
SOUTHERN LAKE MICHIGAN

STATION/POSITION SKY/WX   TEMP    WIND        PRES    VSBY  WAVE
                          AIR SEA DIR/SP/G                  HT/PER
                          (F)     (DEG/KT/KT) (MB)    (MI)  (FT/S)
HARRISON CRIB              82     270/ 17/ 22   N/A
BURNHAM HARBOR             84     280/ 10/ 16   N/A
CALUMET HARBOR             84     220/ 10/ 17   N/A
BURNS HARBOR               82     280/  4/  6 1013.2F
MICHIGAN CITY              77      20/  5/  6   N/A
MICHIGAN CITY 6N           77 76  110/  4/  6   N/A           1
ST. JOSEPH                 78 76  170/  2/  2   N/A           1/ 4
$$

ILZ025>027-034>036-040-047-049-050-058-095>099-020000-
WEST-CENTRAL ILLINOIS

CITY           SKY/WX    TMP DP  RH WIND       PRES   REMARKS
QUINCY         SUNNY     85  70  60 S7        29.97F HX  89
GALESBURG*     MOSUNNY   83  66  57 SW8       29.96S HX  85
MACOMB*        SUNNY     85  67  56 SW3       29.98F HX  87
JACKSONVILLE*  SUNNY     86  68  55 SW7       29.98S HX  89
PITTSFIELD*    SUNNY     84  70  61 S5        29.99F HX  88
$$

ILZ028>032-037-038-041>044-048-051>054-059>061-020000-
CENTRAL ILLINOIS

CITY           SKY/WX    TMP DP  RH WIND       PRES   REMARKS
PONTIAC        MOSUNNY   82  69  64 W6        29.96S HX  85
BLOOMINGTON    MOSUNNY   84  61  45 SW14      29.98F HX  84
DECATUR        SUNNY     85  58  39 SW13      29.98F HX  84
PEORIA         MOSUNNY   87  62  43 SW10      29.96S HX  87
LACON*         MOSUNNY   82  63  52 SW5       29.94F HX  83
LINCOLN*       SUNNY     87  58  36 SW5       29.96S HX  86
SPRINGFIELD    SUNNY     86  63  45 SW7       29.98F HX  87
TAYLORVILLE    SUNNY     82  63  51 S5        29.99F HX  83
$$

ILZ033-039-045-046-055>057-062-063-020000-
EAST-CENTRAL ILLINOIS

CITY           SKY/WX    TMP DP  RH WIND       PRES   REMARKS
CHAMPAIGN      SUNNY     83  66  56 SW7       29.98F HX  85
DANVILLE*      MOSUNNY   81  65  58 SW8       29.95S HX  82
RANTOUL*       MOSUNNY   84  64  50 SW8       29.97F HX  85
MATTOON        SUNNY     83  59  44 SW7       29.98F HX  83
PARIS*         SUNNY     82  62  49 SW7       29.99F HX  83
$$

ILZ079-100>102-020000-
SOUTHWEST ILLINOIS

CITY           SKY/WX    TMP DP  RH WIND       PRES   REMARKS
BELLEVILLE     MOSUNNY   87  69  54 VRB3      29.97F HX  91
CAHOKIA*       MOSUNNY   89  66  46 SE7       29.97F HX  91
SPARTA*        MOSUNNY   85  68  56 CALM      29.99F HX  87
$$

ILZ064>066-069>071-074>076-080>082-084>086-088>090-092>094-020000-
SOUTH-CENTRAL ILLINOIS

CITY           SKY/WX    TMP DP  RH WIND       PRES   REMARKS
CARBONDALE     MOSUNNY   87  67  51 CALM      29.98F HX  90
CAIRO*         PTSUNNY   84  73  68 NE3       29.96F HX  91
EFFINGHAM*     SUNNY     85  53  32 S3        30.01S HX  83
MARION         MOSUNNY   88  66  48 NE7       29.99F HX  90
MT. VERNON     MOSUNNY   90  61  37 S5        30.00S HX  89
CENTRALIA*     SUNNY     86  60  41 S3        29.99F HX  86
SALEM*         SUNNY     87  57  35 CALM      30.00F HX  86
METROPOLIS*    SUNNY     86  72  62 CALM      29.98F HX  92
$$

ILZ067-068-072-073-078-083-087-091-020000-
SOUTHEAST ILLINOIS

CITY           SKY/WX    TMP DP  RH WIND       PRES   REMARKS
LAWRENCEVILLE  MOSUNNY   85  57  38 W8        30.00S HX  84
FLORA*         MOSUNNY   85  56  36 CALM      30.00S HX  84
FAIRFIELD*     MOSUNNY   85  60  43 CALM      29.99S HX  85
HARRISBURG*    PTSUNNY   85  60  42 CALM      30.01S HX  84
ROBINSON*      SUNNY     84  59  42 CALM      30.00S HX  83
CARMI*         MOSUNNY   86  56  36 CALM      29.98F HX  84
$$

ABBREVIATIONS USED IN REMARKS
   TC - TEMPERATURE IN CELSIUS
  WCI - WIND CHILL INDEX
   HX - HEAT INDEX
  VSB - VISIBILITY
$$




USA.gov is the U.S. government's official web portal to all federal, state and local government web resources and services.